M7VJL-13 Weather Reports


Display with metric or nautical units.
time (UTC)temp
F
wind
direction
speed
MPH
gust
MPH
rain 1hr
in
rain 24hr
in
rain mn
in
humidity
%
barometer
mb
20260508054511 46 180 0.0 3.0 0.00 0.00 0.00 91 1016.4
20260508053032 46 184 0.0 2.0 0.00 0.00 0.00 91 1016.3
20260508051522 45 167 1.0 5.0 0.00 0.00 0.00 91 1016.3
20260508050005 45 155 0.0 3.0 0.00 0.00 0.00 91 1016.2
20260508044508 45 143 0.0 5.0 0.00 0.00 0.00 91 1016.1
20260508043013 45 178 0.0 2.0 0.00 0.00 0.00 90 1016.1
20260508041536 45 179 0.0 3.0 0.00 0.00 0.00 90 1016.1
20260508040006 45 179 1.0 5.0 0.00 0.00 0.00 90 1016.1
20260508034509 45 190 0.0 3.0 0.00 0.00 0.00 90 1016.1
20260508033016 45 190 1.0 3.0 0.00 0.00 0.00 90 1016.2
20260508031518 45 166 0.0 5.0 0.00 0.00 0.00 90 1016.1
20260508030030 45 178 1.0 4.0 0.00 0.00 0.00 90 1016.1
20260508024508 45 172 0.0 1.0 0.00 0.00 0.00 90 1016.1
20260508023009 45 172 0.0 3.0 0.00 0.00 0.00 90 1016.1
20260508021515 45 171 0.0 2.0 0.00 0.00 0.00 90 1016.1
20260508020025 45 171 0.0 2.0 0.00 0.00 0.00 89 1016.1
20260508014522 45 170 0.0 2.0 0.00 0.00 0.00 89 1015.9
20260508013008 45 170 0.0 2.0 0.00 0.00 0.00 89 1016.0
20260508011514 45 170 0.0 2.0 0.00 0.00 0.00 88 1016.0
20260508010016 45 165 0.0 4.0 0.00 0.00 0.00 88 1015.8
20260508004520 46 167 0.0 3.0 0.00 0.00 0.00 87 1016.0
20260508003022 46 171 0.0 5.0 0.00 0.00 0.00 87 1016.1
20260508001508 47 146 0.0 5.0 0.00 0.00 0.00 86 1016.2
20260508000013 47 169 0.0 4.0 0.00 0.00 0.00 85 1016.2
20260507234515 48 172 0.0 6.0 0.00 0.00 0.00 85 1016.2
20260507233037 48 177 1.0 6.0 0.00 0.00 0.00 84 1016.2
20260507231530 49 175 2.0 5.0 0.00 0.00 0.00 83 1016.3
20260507230008 49 196 0.0 5.0 0.00 0.00 0.00 82 1016.3
20260507224511 49 183 1.0 6.0 0.00 0.00 0.00 82 1016.5
20260507223003 49 178 1.0 7.0 0.00 0.00 0.00 81 1016.5
20260507221503 50 181 1.0 7.0 0.00 0.00 0.00 81 1016.5
20260507220008 50 181 1.0 6.0 0.00 0.00 0.00 80 1016.5
20260507213015 51 176 1.0 4.0 0.00 0.00 0.00 78 1016.3
20260507211503 51 156 0.0 5.0 0.00 0.00 0.00 77 1016.2
20260507210007 51 194 0.0 5.0 0.00 0.00 0.00 77 1016.2
20260507204509 52 179 1.0 5.0 0.00 0.00 0.00 76 1016.2
20260507201514 52 182 1.0 4.0 0.00 0.00 0.00 75 1015.8
20260507200010 53 111 0.0 6.0 0.00 0.00 0.00 74 1015.6
20260507194509 53 157 0.0 5.0 0.00 0.00 0.00 72 1015.5
20260507193014 54 193 0.0 6.0 0.00 0.00 0.00 71 1015.4
20260507190010 56 150 2.0 9.0 0.00 0.00 0.00 67 1015.2
20260507184505 56 178 1.0 4.0 0.00 0.00 0.00 64 1015.2
20260507183006 56 200 1.0 6.0 0.00 0.00 0.00 61 1015.2
20260507181508 57 118 2.0 7.0 0.00 0.00 0.00 60 1015.0
20260507180013 57 127 0.0 6.0 0.00 0.00 0.00 61 1015.0
20260507173006 57 181 1.0 9.0 0.00 0.00 0.00 61 1015.0
20260507171510 57 184 1.0 8.0 0.00 0.00 0.00 61 1015.0
20260507170013 57 160 1.0 9.0 0.00 0.00 0.00 61 1015.1
20260507163018 57 179 2.0 8.0 0.00 0.00 0.00 61 1015.1
20260507161505 57 188 2.0 9.0 0.00 0.00 0.00 60 1015.1
20260507160008 57 179 1.0 7.0 0.00 0.00 0.00 60 1015.1
20260507154514 57 175 2.0 7.0 0.00 0.00 0.00 59 1015.2
20260507153017 57 165 1.0 6.0 0.00 0.00 0.00 61 1015.3
20260507151516 57 161 2.0 10.0 0.00 0.00 0.00 60 1015.4
20260507150009 57 200 1.0 5.0 0.00 0.00 0.00 60 1015.4
20260507144514 57 114 1.0 5.0 0.00 0.00 0.00 60 1015.3
20260507143021 57 167 1.0 6.0 0.00 0.00 0.00 59 1015.4
20260507141517 57 163 2.0 7.0 0.00 0.00 0.00 56 1015.5
20260507140020 57 131 2.0 5.0 0.00 0.00 0.00 61 1015.6
20260507133003 57 360 2.0 8.0 0.00 0.00 0.00 58 1015.6
20260507131506 57 360 2.0 7.0 0.00 0.00 0.00 61 1015.7
20260507124515 56 181 3.0 5.0 0.00 0.00 0.00 61 1015.7
20260507123013 56 360 0.0 5.0 0.00 0.00 0.00 62 1015.7
20260507120012 56 360 0.0 4.0 0.00 0.00 0.00 62 1015.9
20260507114505 56 184 1.0 6.0 0.00 0.00 0.00 61 1015.9
20260507110022 58 187 1.0 5.0 0.00 0.00 0.00 60 1016.0
20260507104504 58 184 2.0 7.0 0.00 0.00 0.00 61 1016.0
20260507103009 57 90 1.0 8.0 0.00 0.00 0.00 63 1016.2
20260507101510 57 355 0.0 3.0 0.00 0.00 0.00 67 1016.3
20260507100025 56 70 1.0 5.0 0.00 0.00 0.00 66 1016.3
20260507094521 55 183 1.0 5.0 0.00 0.00 0.00 68 1016.4
20260507093003 55 186 1.0 7.0 0.00 0.00 0.00 68 1016.3
20260507091509 54 163 0.0 5.0 0.00 0.00 0.00 72 1016.3
20260507090014 53 155 0.0 4.0 0.00 0.00 0.00 71 1016.3
20260507084518 53 180 1.0 6.0 0.00 0.00 0.00 69 1016.3
20260507083023 53 132 1.0 7.0 0.00 0.00 0.00 74 1016.3
20260507080010 51 118 1.0 5.0 0.00 0.00 0.00 78 1016.2
20260507074526 50 158 1.0 6.0 0.00 0.00 0.00 83 1016.2
20260507073021 49 180 2.0 6.0 0.00 0.00 0.00 89 1016.1
20260507071531 47 138 0.0 4.0 0.00 0.00 0.00 94 1016.0
20260507070012 46 104 0.0 1.0 0.00 0.00 0.00 95 1016.0
20260507064512 45 76 0.0 1.0 0.00 0.00 0.00 95 1016.0
20260507063019 43 310 0.0 1.0 0.00 0.00 0.00 95 1016.0
20260507061530 42 309 0.0 0.0 0.00 0.00 0.00 94 1016.0
20260507060025 42 309 0.0 0.0 0.00 0.00 0.00 94 1016.0